CST,Max TemperatureF,Mean TemperatureF,Min TemperatureF,Max Dew PointF,MeanDew PointF,Min DewpointF,Max Humidity, Mean Humidity, Min Humidity, Max Sea Level PressureIn, Mean Sea Level PressureIn, Min Sea Level PressureIn, Max VisibilityMiles, Mean VisibilityMiles, Min VisibilityMiles, Max Wind SpeedMPH, Mean Wind SpeedMPH, Max Gust SpeedMPH,PrecipitationIn, CloudCover, Events, WindDirDegrees
2012-11-1,42,36,30,32,26,15,86,63,34,30.07,29.97,29.90,10,10,10,17,6,22,0.00,7,,336
2012-11-2,36,27,18,27,23,16,94,77,62,30.22,30.16,30.08,10,10,10,9,4,,0.00,1,,52
2012-11-3,39,33,26,30,26,24,93,77,63,30.28,30.25,30.23,10,10,10,9,3,,0.00,5,,95
2012-11-4,40,30,22,30,26,20,96,78,55,30.29,30.26,30.22,10,10,10,12,5,18,0.00,5,,103
2012-11-5,40,30,21,32,27,20,95,75,55,30.27,30.16,29.91,10,10,10,8,5,,0.00,6,,109
2012-11-6,42,38,34,38,35,32,97,88,71,29.95,29.80,29.72,10,8,3,13,6,17,0.11,8,Rain,254
2012-11-7,41,36,30,36,34,30,99,86,75,30.08,30.04,29.95,10,10,10,8,3,,0.00,7,,264
2012-11-8,51,40,30,36,34,30,99,77,52,30.07,29.97,29.88,10,10,10,15,4,22,0.00,4,Rain,243
2012-11-9,42,40,37,37,34,32,89,83,76,30.16,30.12,30.07,10,10,10,18,9,26,0.00,8,,66
2012-11-10,42,38,35,42,39,32,100,96,82,29.99,29.74,29.50,10,4,1,21,16,30,0.20,8,Rain-Snow,72
2012-11-11,47,36,24,46,31,14,100,85,66,29.83,29.66,29.48,10,8,1,18,9,26,0.17,8,Rain-Snow,267
2012-11-12,26,22,19,18,16,12,85,72,65,30.21,29.96,29.83,10,9,2,20,13,25,0.00,8,Snow,256
2012-11-13,36,28,19,23,18,16,86,68,46,30.34,30.29,30.22,10,10,10,12,7,16,0.00,4,,232
2012-11-14,42,32,22,31,26,21,99,82,56,30.28,30.22,30.13,10,9,4,7,1,,0.00,4,,169
2012-11-15,46,34,21,33,19,6,97,62,22,30.49,30.25,30.09,10,9,2,15,5,24,0.00,2,,305
2012-11-16,37,24,12,28,18,9,99,76,53,30.52,30.44,30.34,10,10,10,8,2,,0.00,0,,94
2012-11-17,54,36,17,41,29,15,96,72,44,30.34,30.25,30.20,10,10,5,15,3,20,0.06,2,Rain,194
2012-11-18,55,43,31,41,34,31,100,69,40,30.21,30.13,30.07,10,8,2,12,4,16,0.01,4,,176
2012-11-19,48,38,28,40,34,28,100,90,65,30.10,30.05,30.01,10,6,0,6,1,,0.00,4,Fog,33
2012-11-20,44,33,22,36,31,22,100,90,58,30.17,30.11,30.04,10,5,0,5,1,,0.00,2,Fog,40
2012-11-21,47,36,26,39,35,26,100,96,71,30.04,29.88,29.67,10,2,0,9,1,,0.00,5,Fog,45
2012-11-22,53,40,26,45,35,24,100,90,57,29.79,29.65,29.56,10,4,0,23,6,31,0.06,6,Fog-Rain-Snow,290
2012-11-23,27,20,13,24,14,7,92,73,63,30.34,30.17,29.79,10,9,2,25,15,33,0.03,8,Snow,327
2012-11-24,22,12,3,19,10,0,94,82,66,30.32,30.10,29.80,10,9,1,8,5,,0.05,4,Snow,235
2012-11-25,27,20,12,21,17,3,91,75,64,30.16,29.93,29.79,10,10,7,20,8,25,0.05,7,Snow,287
2012-11-26,16,10,4,9,3,-1,80,69,56,30.37,30.31,30.17,10,10,10,13,8,,0.00,2,,270
2012-11-27,27,22,17,22,16,9,85,75,67,30.26,30.14,30.07,10,9,2,14,8,16,0.00,8,Snow,249
2012-11-28,27,22,18,21,16,10,89,74,67,30.30,30.20,30.09,10,10,10,16,9,20,0.00,4,Snow,253
2012-11-29,30,23,16,27,22,15,96,86,75,30.24,30.19,30.11,10,9,4,18,7,26,0.00,6,,83
2012-11-30,31,29,27,28,24,22,89,83,78,30.26,30.20,30.08,10,10,10,14,9,22,0.00,8,,93